User: anonymous   Login
Location: Starry Hill Observatory
(46.8582°N, 122.3590°W)
Time: 12:40:55
(UTC-07:00)
Language:

Cosmos 1300 Rocket - Orbit

View from above orbital plane
View from above orbital plane
View from above satellite
View from above satellite

Ground track
Ground track

The orbit data is extracted from the following two-line orbital elements,

1 12786U 81082B   14298.12381270  .00000740  00000-0  85487-4 0   247
2 12786 082.4883 158.0204 0017544 198.3407 161.7178 14.84214953791483
Epoch (UTC): 25 October 2014 02:58:17
Eccentricity: 0.0017544
inclination: 82.4883°
perigee height: 604 km
apogee height: 628 km
right ascension of ascending node: 158.0204°
argument of perigee: 198.3407°
revolutions per day: 14.84214953
mean anomaly at epoch: 161.7178°
orbit number at epoch: 79148

The dashed part of the orbit path shows where the satellite is in the earth's shadow,  

DLR